Location: Jetmore Oil Field
(38.1181°N, 99.9337°W)
Time: 18:03:35
(UTC+00:00)

ISS - Pass Details

Date: 02 July 2021
Orbit: 419 x 421 km, 51.6° (Epoch: 29 July)

Event Time Altitude Azimuth Distance (km) Brightness Sun altitude
Exits shadow 07:45:06 11° 70° (ENE) 1,411 -0.7 -27.2°
Drops below altitude 10° 07:45:20 10° 68° (ENE) 1,499 -0.5 -27.2°
Sets 07:47:33 0° 59° (ENE) 2,365 0.7 -27.1°
